TimeCDT,TemperatureF,Dew PointF,Humidity,Sea Level PressureIn,VisibilityMPH,Wind Direction,Wind SpeedMPH,Gust SpeedMPH,PrecipitationIn,Events,Conditions,WindDirDegrees,DateUTC
12:15 AM,39.2,37.4,93,30.26,10.0,Calm,Calm,-,N/A,,Clear,0,2012-10-29 05:15:00
12:35 AM,39.2,37.4,93,30.26,10.0,Calm,Calm,-,N/A,,Clear,0,2012-10-29 05:35:00
12:55 AM,37.4,35.6,93,30.26,10.0,Calm,Calm,-,N/A,,Clear,0,2012-10-29 05:55:00
1:15 AM,37.4,35.6,93,30.27,10.0,Calm,Calm,-,N/A,,Clear,0,2012-10-29 06:15:00
1:35 AM,37.4,35.6,93,30.27,10.0,Calm,Calm,-,N/A,,Clear,0,2012-10-29 06:35:00
1:55 AM,37.4,35.6,93,30.27,10.0,Calm,Calm,-,N/A,,Clear,0,2012-10-29 06:55:00
2:15 AM,37.4,35.6,93,30.28,10.0,Calm,Calm,-,N/A,,Clear,0,2012-10-29 07:15:00
2:35 AM,37.4,35.6,93,30.27,10.0,Calm,Calm,-,N/A,,Clear,0,2012-10-29 07:35:00
2:55 AM,37.4,35.6,93,30.28,10.0,Calm,Calm,-,N/A,,Clear,0,2012-10-29 07:55:00
3:15 AM,37.4,35.6,93,30.28,10.0,Calm,Calm,-,N/A,,Clear,0,2012-10-29 08:15:00
3:35 AM,35.6,33.8,93,30.28,10.0,Calm,Calm,-,N/A,,Clear,0,2012-10-29 08:35:00
3:55 AM,35.6,35.6,100,30.28,10.0,Calm,Calm,-,N/A,,Clear,0,2012-10-29 08:55:00
4:15 AM,35.6,35.6,100,30.28,10.0,Calm,Calm,-,N/A,,Clear,0,2012-10-29 09:15:00
4:55 AM,35.6,33.8,93,30.29,10.0,Calm,Calm,-,N/A,,Clear,0,2012-10-29 09:55:00
5:35 AM,35.6,33.8,93,30.29,10.0,Calm,Calm,-,N/A,,Clear,0,2012-10-29 10:35:00
5:55 AM,35.6,33.8,93,30.29,10.0,Calm,Calm,-,N/A,,Clear,0,2012-10-29 10:55:00
6:15 AM,35.6,33.8,93,30.29,10.0,Calm,Calm,-,N/A,,Clear,0,2012-10-29 11:15:00
6:35 AM,33.8,33.8,100,30.29,10.0,Calm,Calm,-,N/A,,Clear,0,2012-10-29 11:35:00
6:55 AM,33.8,33.8,100,30.30,10.0,Calm,Calm,-,N/A,,Clear,0,2012-10-29 11:55:00
7:35 AM,35.6,33.8,93,30.31,10.0,Calm,Calm,-,N/A,,Clear,0,2012-10-29 12:35:00
8:15 AM,37.4,35.6,93,30.32,10.0,Calm,Calm,-,N/A,,Clear,0,2012-10-29 13:15:00
8:55 AM,46.4,41.0,81,30.33,10.0,Calm,Calm,-,N/A,,Clear,0,2012-10-29 13:55:00
9:15 AM,51.8,42.8,71,30.33,10.0,Calm,Calm,-,N/A,,Clear,0,2012-10-29 14:15:00
9:35 AM,53.6,37.4,54,30.34,10.0,Calm,Calm,-,N/A,,Clear,0,2012-10-29 14:35:00
9:55 AM,55.4,35.6,47,30.33,10.0,Calm,Calm,-,N/A,,Clear,0,2012-10-29 14:55:00
10:15 AM,57.2,35.6,44,30.33,10.0,Calm,Calm,-,N/A,,Clear,0,2012-10-29 15:15:00
10:35 AM,59.0,32.0,36,30.33,10.0,Calm,Calm,-,N/A,,Clear,0,2012-10-29 15:35:00
10:55 AM,60.8,28.4,29,30.33,10.0,Calm,Calm,-,N/A,,Clear,0,2012-10-29 15:55:00
11:15 AM,60.8,30.2,31,30.33,10.0,Calm,Calm,-,N/A,,Clear,0,2012-10-29 16:15:00
11:55 AM,60.8,30.2,31,30.31,10.0,Calm,Calm,-,N/A,,Clear,0,2012-10-29 16:55:00
12:15 PM,62.6,32.0,32,30.31,10.0,Calm,Calm,-,N/A,,Clear,0,2012-10-29 17:15:00
12:35 PM,62.6,32.0,32,30.30,10.0,Calm,Calm,-,N/A,,Clear,0,2012-10-29 17:35:00
12:55 PM,62.6,32.0,32,30.29,10.0,Calm,Calm,-,N/A,,Clear,0,2012-10-29 17:55:00
1:35 PM,64.4,32.0,30,30.27,10.0,Calm,Calm,-,N/A,,Clear,0,2012-10-29 18:35:00
1:55 PM,64.4,32.0,30,30.26,10.0,Calm,Calm,-,N/A,,Clear,0,2012-10-29 18:55:00
2:15 PM,64.4,33.8,32,30.24,8.0,Calm,Calm,-,N/A,,Clear,0,2012-10-29 19:15:00
2:35 PM,66.2,33.8,30,30.23,10.0,Calm,Calm,-,N/A,,Clear,0,2012-10-29 19:35:00
2:55 PM,66.2,33.8,30,30.22,10.0,Calm,Calm,-,N/A,,Clear,0,2012-10-29 19:55:00
3:15 PM,64.4,32.0,30,30.22,10.0,Calm,Calm,-,N/A,,Clear,0,2012-10-29 20:15:00
3:35 PM,66.2,33.8,30,30.21,10.0,Calm,Calm,-,N/A,,Clear,0,2012-10-29 20:35:00
3:55 PM,66.2,33.8,30,30.20,10.0,Calm,Calm,-,N/A,,Clear,0,2012-10-29 20:55:00
4:55 PM,66.2,35.6,32,30.19,10.0,Calm,Calm,-,N/A,,Clear,0,2012-10-29 21:55:00
5:15 PM,66.2,33.8,30,30.18,10.0,Calm,Calm,-,N/A,,Clear,0,2012-10-29 22:15:00
5:35 PM,64.4,35.6,34,30.18,10.0,Calm,Calm,-,N/A,,Clear,0,2012-10-29 22:35:00
5:55 PM,62.6,44.6,52,30.18,10.0,Calm,Calm,-,N/A,,Clear,0,2012-10-29 22:55:00
6:15 PM,57.2,44.6,63,30.18,10.0,Calm,Calm,-,N/A,,Clear,0,2012-10-29 23:15:00
6:35 PM,53.6,44.6,72,30.19,10.0,Calm,Calm,-,N/A,,Clear,0,2012-10-29 23:35:00
6:55 PM,51.8,44.6,76,30.19,10.0,Calm,Calm,-,N/A,,Clear,0,2012-10-29 23:55:00
7:15 PM,50.0,44.6,82,30.19,10.0,Calm,Calm,-,N/A,,Clear,0,2012-10-30 00:15:00
7:35 PM,48.2,44.6,87,30.19,10.0,Calm,Calm,-,N/A,,Clear,0,2012-10-30 00:35:00
10:35 PM,42.8,39.2,87,30.19,10.0,Calm,Calm,-,N/A,,Clear,0,2012-10-30 03:35:00
10:55 PM,42.8,39.2,87,30.19,10.0,Calm,Calm,-,N/A,,Clear,0,2012-10-30 03:55:00
11:15 PM,42.8,39.2,87,30.19,10.0,Calm,Calm,-,N/A,,Clear,0,2012-10-30 04:15:00
11:35 PM,42.8,39.2,87,30.19,10.0,Calm,Calm,-,N/A,,Clear,0,2012-10-30 04:35:00
11:55 PM,41.0,37.4,87,30.18,10.0,Calm,Calm,-,N/A,,Clear,0,2012-10-30 04:55:00